Billings, MT

1:02 AM MDT on April 28, 2017 (GMT -0600)
Billings Logan International

Weather History for KBIL - April, 2013

Change the Weather History Date:

Saturday, April 27, 2013

  Actual Average Record
Temperature  
Mean Temperature 63 °F -  
Max Temperature 77 °F 62 °F 84 °F (1987)
Min Temperature 49 °F 38 °F 20 °F (1994)
Degree Days  
Heating Degree Days 2    
Month to date heating degree days 645  
Growing Degree Days 12 (Base 50)    
Moisture  
Dew Point 26 °F    
Average Humidity 30    
Maximum Humidity 46    
Minimum Humidity 13    
Precipitation  
Precipitation 0.00 in 0.06 in 0.94 in (1970)
Month to date precipitation 1.02 1.46  
Year to date precipitation 2.16 3.48  
Snow  
Snow 0.00 in - - ()
Month to date snowfall 5.6  
Snow Depth 0.00 in    
Sea Level Pressure  
Sea Level Pressure 29.90 in    
Wind  
Wind Speed 15 mph (WSW)    
Max Wind Speed 31 mph    
Max Gust Speed 39 mph    
Visibility 10 miles    
Events      
T = Trace of Precipitation, MM = Missing Value Source: NWS Daily Summary

Daily Weather History Graph

Daily Weather History Graph

Search for Another Location

Airport or City:

Trip Planner

Search our weather history database for the weather conditions in past years. The results will help you decide how hot, cold, wet, or windy it might be!

Date:

Astronomy

Apr. 27, 2013 Rise Set
Actual Time 6:07 AM MDT 8:16 PM MDT
Civil Twilight 5:34 AM MDT 8:49 PM MDT
Nautical Twilight 4:54 AM MDT 9:30 PM MDT
Astronomical Twilight 4:10 AM MDT 10:15 PM MDT
Moon 10:55 PM MDT (4/27) 7:23 AM MDT (4/27)
Length of Visible Light 15h 14m
Length of Day
14h 09m
Waning Gibbous, 95% of the Moon is Illuminated
Apr 27
Waning Gibbous
May 2
Last Quarter
May 9
New
May 17
First Quarter
May 24
Full

Hourly Weather History & Observations

Time (MDT) Temp. Dew Point Humidity Pressure Visibility Wind Dir Wind Speed Gust Speed Precip Events Conditions
12:53 AM 55.9 °F 26.1 °F 32% 30.02 in 10.0 mi SW 12.7 mph - N/A   Clear
1:53 AM 55.9 °F 27.0 °F 33% 30.02 in 10.0 mi SW 13.8 mph - N/A   Clear
2:53 AM 54.0 °F 26.1 °F 34% 30.00 in 10.0 mi WSW 15.0 mph - N/A   Clear
3:53 AM 53.1 °F 27.0 °F 37% 30.01 in 10.0 mi WSW 12.7 mph - N/A   Clear
4:53 AM 51.1 °F 28.9 °F 43% 30.01 in 10.0 mi WSW 18.4 mph - N/A   Clear
5:53 AM 48.9 °F 28.9 °F 46% 30.01 in 10.0 mi WSW 17.3 mph - N/A   Clear
6:53 AM 57.0 °F 28.0 °F 33% 29.99 in 10.0 mi WSW 15.0 mph - N/A   Partly Cloudy
7:53 AM 55.9 °F 28.0 °F 34% 30.01 in 10.0 mi SW 12.7 mph - N/A   Partly Cloudy
8:53 AM 55.9 °F 30.0 °F 37% 30.02 in 10.0 mi WSW 13.8 mph - N/A   Clear
9:53 AM 62.1 °F 30.0 °F 30% 29.99 in 10.0 mi SW 16.1 mph - N/A   Clear
10:53 AM 68.0 °F 30.0 °F 24% 29.96 in 10.0 mi SW 15.0 mph 23.0 mph N/A   Clear
11:53 AM 73.0 °F 26.1 °F 17% 29.93 in 10.0 mi WSW 16.1 mph 27.6 mph N/A   Clear
12:53 PM 75.9 °F 21.9 °F 13% 29.89 in 10.0 mi West 23.0 mph 34.5 mph N/A   Clear
1:53 PM 75.0 °F 21.9 °F 14% 29.86 in 10.0 mi West 27.6 mph 38.0 mph N/A   Clear
2:53 PM 75.0 °F 23.0 °F 14% 29.86 in 10.0 mi West 21.9 mph 29.9 mph N/A   Partly Cloudy
3:53 PM 73.0 °F 24.1 °F 16% 29.83 in 10.0 mi West 12.7 mph - N/A   Scattered Clouds
4:53 PM 72.0 °F 24.1 °F 17% 29.81 in 10.0 mi West 10.4 mph - N/A   Scattered Clouds
5:53 PM 73.0 °F 24.1 °F 16% 29.79 in 10.0 mi SW 9.2 mph - N/A   Partly Cloudy
6:53 PM 72.0 °F 25.0 °F 17% 29.76 in 10.0 mi SSW 8.1 mph - N/A   Partly Cloudy
7:53 PM 70.0 °F 26.1 °F 19% 29.75 in 10.0 mi WSW 6.9 mph - N/A   Partly Cloudy
8:53 PM 69.1 °F 23.0 °F 18% 29.76 in 10.0 mi West 17.3 mph - N/A   Scattered Clouds
9:53 PM 68.0 °F 24.1 °F 19% 29.76 in 10.0 mi WSW 10.4 mph - N/A   Partly Cloudy
10:53 PM 64.0 °F 24.1 °F 22% 29.77 in 10.0 mi NW 10.4 mph 17.3 mph N/A   Clear
11:53 PM 62.1 °F 24.1 °F 23% 29.75 in 10.0 mi NNW 17.3 mph - N/A   Scattered Clouds